STARLINK-3172, 51139

Orbit data source: Space-Track

STARLINK-3172, 51139 is a payload satellite owned by SpaceX/Seattle (US) in LEO that was launched on Wed, 19 Jan 2022 UTC via an FALCON 9 launch vehicle from the Air Force Eastern Test Range (AFETR). Payload-class satellites include a variety of spacecraft equipped with specific instruments for various scientific and technological missions. These include communications satellites like Starlink; space stations such as the ISS; scientific satellites like the Hubble; Earth observation satellites from companies like Planet Labs, Umbra, and HawkEye 360; GPS; miniature CubeSats for education and research; and military/defense satellites.

Loading next visibility...
Identifier
51139, 2022-005AM
Orbit
LEO
Country
Flag of USUS
Related business
Manufacturer
SpaceX/Seattle
Mission
Operational Commercial Communications
Bus & Motor
STARLINK, Unknown motor
Mass
297 kg wet, ~275 kg dry
Launch date (UTC)
2022-01-19 (4 years ago)
Launch vehicle
FALCON 9
Launch site
Air Force Eastern Test Range (AFETR)
Object type
Payload
Rocket body
Debris
Shape & HBR
Box + 1 Pan, 10.1 m
Radar Cross Section
13.562 m², Large (>1 m²)

Expand to show TLE details & history
Last TLE update: 8 hours ago

TLE from 8 hours ago
0 STARLINK-3172
1 51139U 22005AM  26094.27878835 -.00000623  00000-0 -21060-4 0  9993
2 51139  53.2160 184.2599 0001471  98.7983 261.3175 15.08837238232606
Epoch: 2026-04-04T06:41Z
TLE epoch observation values (Epoch: 2026-04-04T06:41:27.313Z)
Latitude
-0.00008°
Longitude
-108.70482°
Altitude
540.803 km
Speed
7.593 km/s
True Right ascension
12h 17m 02s
True Declination
0° 00' 00"
Sunlit
Object was in full shadow at epoch
Visualization orbit readout
Latitude
Unknown
Longitude
Unknown
Altitude
Unknown
Speed
Unknown
Apparent Right ascension
Unknown
Apparent Declination
Unknown
Sunlit
N/A
Visualization observer readout
Local Sidereal Time
20:30:00
Azimuth
Unknown
Elevation
Unknown
Doppler factor
Unknown
Orbital elements
Apogee altitude
541.015 km
Perigee altitude
538.979 km
Semi-major axis
6,918.134 km
Eccentricity
0.00015
Inclination
53.216°
RAAN
184.2599°
Arg. of periapsis
98.7983°
True anomaly
261.30084°
Mean anomaly
261.3175°
Eccentric anomaly
261.30917°
Mean motion
3.7719 °/min
Orbital period
95.44 mins
BSTAR
-0.00002106
Loading maneuver chart data...
Computing Atmospheric mass density...
Loading historical data...
Loading historical data...
Loading historical data...
Loading historical data...
Loading historical data...
Loading historical data...
Loading historical data...

Documentation

Showing up to 5 results
|